Wind_Speed
126 126 127 127 128 129 130 131 132 134 135 137 138 139 140 141 142 142 143 143 142 141 141 140 139 138 137 138 139 138 136 134 132 132 132 131 129 128 126 125 125 126
127 127 127 127 127 128 129 129 131 132 133 135 136 138 140 141 143 143 144 145 145 144 143 143 142 142 141 140 141 142 142 140 138 135 134 132 131 131 129 128 127 126
129 129 129 129 128 128 128 129 129 130 131 133 134 136 138 139 142 143 145 146 146 146 146 146 145 145 144 143 143 143 144 145 144 142 139 136 133 132 131 130 129 129
130 130 130 130 130 130 130 129 129 130 130 131 132 134 136 137 139 141 143 145 147 148 148 148 148 147 147 146 146 146 146 147 147 147 145 142 138 135 133 132 131 130
132 132 132 132 132 132 131 131 131 131 130 131 131 132 134 135 137 139 141 143 145 147 149 150 150 150 150 149 149 149 149 149 149 150 150 148 146 143 141 139 137 135
133 133 133 133 133 133 133 133 132 132 132 132 132 132 133 134 135 137 138 140 142 145 147 149 151 152 152 152 152 152 151 151 151 152 152 153 152 151 149 148 145 142
131 132 134 134 134 134 134 134 134 134 134 133 133 133 133 134 134 135 137 138 140 142 144 147 149 151 153 154 154 154 154 154 154 154 154 155 155 155 154 153 150 146
127 129 131 133 134 135 135 135 135 135 135 135 135 134 134 134 135 135 136 137 138 140 141 144 146 148 151 153 155 156 156 157 156 156 156 156 156 157 156 156 155 152
125 127 128 130 132 134 135 136 136 136 136 136 136 136 136 136 136 136 136 136 137 138 140 141 143 145 148 150 152 155 157 158 158 159 159 158 158 158 158 158 158 158
124 125 127 128 129 131 132 134 136 137 137 137 138 138 137 137 137 137 137 137 137 138 139 140 141 143 145 147 149 152 154 156 158 160 160 161 161 161 160 160 160 161
123 124 125 127 128 129 130 132 133 135 136 137 138 139 139 139 139 139 138 139 138 139 139 139 140 141 143 145 147 149 151 153 155 158 160 161 162 163 163 163 163 163
122 123 124 125 127 128 129 130 131 132 134 135 137 138 139 140 140 140 140 140 140 140 140 140 140 141 142 143 145 147 148 150 152 154 157 159 162 163 164 164 165 165
121 122 123 125 126 127 128 129 130 131 132 133 134 136 137 139 140 141 141 141 141 142 142 142 142 142 142 143 144 145 146 148 150 151 153 156 158 160 163 164 165 166
120 121 122 124 125 126 127 128 129 130 131 132 133 134 135 136 138 139 141 142 143 143 143 143 143 143 143 143 144 144 145 146 148 149 151 153 155 157 159 161 163 165
119 120 121 122 123 125 126 127 128 129 130 131 132 133 134 135 136 137 138 140 141 143 144 144 145 145 145 145 145 145 145 145 146 148 149 151 153 154 156 157 159 162
118 119 120 121 122 123 125 126 127 128 129 130 131 132 133 134 135 135 136 137 139 141 142 144 145 146 146 146 146 146 146 146 146 147 148 149 151 152 154 155 157 158
117 118 119 120 121 122 124 124 125 126 127 128 129 130 131 132 133 134 135 136 137 138 140 141 143 145 146 146 147 147 147 147 147 147 148 149 150 151 152 154 155 156
115 116 118 119 121 122 123 124 124 125 126 127 128 129 130 131 132 133 134 135 136 137 138 139 140 142 143 145 146 147 147 147 148 148 149 149 150 151 151 152 154 155
111 113 115 117 118 120 121 122 123 124 125 126 127 128 129 130 131 132 133 134 134 136 137 138 139 139 140 142 143 145 146 147 147 148 149 150 151 151 152 152 153 154
108 109 111 112 114 116 117 119 121 123 124 125 126 128 128 129 130 131 132 132 133 134 136 137 138 138 139 140 141 142 143 144 146 147 149 150 151 152 153 153 153 154
106 107 108 109 111 112 113 115 117 119 121 122 124 126 127 128 129 130 131 132 132 133 135 136 137 137 138 139 140 140 141 141 143 144 147 149 151 152 153 153 154 154
103 105 106 107 108 110 111 112 113 115 116 118 120 122 124 126 127 129 130 131 132 132 133 135 136 137 137 138 139 139 140 140 141 142 143 145 148 150 152 153 154 154
101 102 103 105 106 107 109 110 111 112 113 114 116 118 120 122 124 126 127 129 130 132 133 134 135 136 136 137 138 139 139 139 140 140 141 142 144 146 148 150 152 154
99 100 101 102 103 104 105 107 108 109 111 112 113 115 116 118 119 121 123 125 127 129 130 132 134 135 136 136 137 138 138 138 139 139 140 141 142 143 145 147 149 151
98 99 100 100 101 102 103 103 104 106 107 109 110 112 114 115 116 118 119 121 123 125 126 128 130 132 134 135 136 137 137 137 137 138 139 140 141 142 143 144 146 147
95 96 97 98 99 100 101 102 102 103 104 105 107 108 110 112 113 115 116 118 119 121 122 124 126 129 131 132 134 135 135 136 136 137 138 138 139 140 141 142 144 145
Wind_Direction
249 248 248 248 248 247 247 247 246 246 245 245 244 244 244 244 244 244 244 245 244 244 244 244 244 244 244 243 242 242 243 243 243 245 246 247 248 249 250 252 253 253
249 249 248 248 248 248 248 247 247 246 246 245 245 244 244 244 244 243 244 244 244 244 244 244 244 244 243 243 243 242 242 243 243 243 244 245 246 248 249 250 250 250
249 249 249 249 248 248 248 248 247 247 247 246 246 245 245 244 244 244 243 243 244 244 244 243 243 243 243 243 242 242 242 243 243 243 244 244 245 246 247 247 248 248
249 249 249 249 249 248 248 248 248 247 247 247 246 246 246 245 244 244 244 244 244 244 244 244 243 243 243 243 242 242 242 242 243 243 243 244 244 244 245 245 246 246
249 249 249 249 249 249 248 248 248 248 247 247 247 246 246 246 245 245 244 244 244 244 244 244 244 243 243 243 243 243 242 242 242 243 243 243 244 244 245 245 245 245
249 249 249 249 249 249 249 248 248 248 247 247 247 247 246 246 246 246 245 245 244 244 244 244 244 244 244 243 243 243 243 242 242 242 243 243 243 244 245 245 246 246
250 250 250 250 250 249 249 249 249 248 248 248 247 247 247 246 246 246 246 245 245 245 244 244 244 244 244 244 244 244 243 243 243 243 243 243 243 243 244 245 245 246
251 251 250 250 250 250 250 250 250 249 249 248 248 248 247 247 247 246 246 246 246 245 245 245 245 244 244 244 244 244 244 244 244 243 243 243 243 243 243 244 244 245
252 252 251 251 251 250 250 250 250 250 250 249 249 248 248 248 247 247 247 247 246 246 246 245 245 245 245 245 245 244 244 244 244 244 244 244 243 243 244 244 244 244
252 252 252 252 251 251 251 250 250 250 250 250 250 249 249 248 248 248 247 247 247 247 246 246 246 245 245 245 245 245 245 245 245 245 245 244 244 244 244 244 244 244
253 253 253 252 252 252 252 251 251 250 250 250 250 250 250 249 249 248 248 248 247 247 247 247 246 246 246 246 246 246 245 245 245 245 245 245 245 245 244 244 244 244
254 254 254 253 253 253 252 252 252 251 251 251 250 250 250 250 249 249 248 248 248 247 247 247 247 247 246 246 246 246 246 246 246 246 246 246 246 246 245 245 245 245
255 255 255 254 254 253 253 253 253 252 252 252 251 251 250 250 250 250 249 249 248 248 248 247 247 247 247 247 246 246 246 246 246 246 246 246 246 246 246 246 246 246
255 255 255 255 255 254 254 254 253 253 253 253 252 252 252 251 250 250 250 250 249 249 248 248 248 247 247 247 247 247 247 247 247 247 247 247 247 247 247 246 246 246
256 256 256 255 255 255 255 254 254 254 253 253 253 253 253 252 252 251 251 250 250 250 249 249 248 248 248 247 247 247 247 247 247 247 247 247 247 247 247 247 247 247
256 256 256 256 256 256 255 255 255 255 254 254 254 253 253 253 253 252 252 252 251 250 250 250 249 249 248 248 248 247 247 247 247 247 247 247 247 248 248 248 248 247
257 257 257 257 257 256 256 256 256 255 255 255 255 254 254 253 253 253 253 252 252 252 251 250 250 250 249 249 248 248 248 247 247 247 247 248 248 248 248 248 248 248
258 258 258 257 257 257 257 257 257 256 256 256 255 255 255 254 254 254 253 253 253 253 252 252 251 251 250 250 249 249 248 248 248 248 248 248 248 248 248 248 248 248
260 259 259 258 258 258 257 257 257 257 257 256 256 256 255 255 255 254 254 254 253 253 253 253 252 252 251 251 250 250 249 249 248 248 248 248 248 248 248 248 248 249
262 261 260 260 259 259 258 258 257 257 257 257 256 256 256 256 255 255 254 254 254 254 253 253 253 253 252 252 251 251 250 249 249 248 248 248 248 248 248 248 248 249
263 262 262 261 261 260 259 258 258 258 257 257 257 256 256 256 256 255 255 255 254 254 254 254 253 253 253 252 252 252 251 250 250 249 249 248 248 249 249 249 249 249
264 263 263 262 262 261 260 260 259 258 258 257 257 257 256 256 256 255 255 255 255 254 254 254 254 253 253 253 252 252 252 251 251 250 249 249 249 249 249 249 249 249
265 265 264 263 262 262 261 261 260 260 259 258 257 257 257 256 256 256 255 255 255 255 254 254 254 254 253 253 253 252 252 252 251 251 250 250 250 249 249 249 249 249
268 267 266 265 264 263 262 262 261 260 260 259 259 258 257 257 256 256 256 255 255 255 255 254 254 254 254 253 253 253 252 252 252 251 251 251 250 250 250 249 249 249
268 268 267 267 266 265 264 263 262 262 261 260 260 259 259 258 257 257 256 256 255 255 255 255 254 254 254 254 253 253 253 252 252 252 251 251 251 251 250 250 250 250
269 268 268 267 267 266 266 265 264 264 263 262 261 260 260 259 259 258 257 257 256 255 255 255 255 255 254 254 254 254 253 253 252 252 252 252 251 251 251 251 250 250
Height
10424 10427 10431 10434 10438 10442 10446 10450 10454 10458 10462 10466 10470 10474 10478 10481 10485 10489 10492 10496 10501 10506 10510 10515 10519 10524 10528 10531 10534 10536 10537 10539 10541 10542 10546 10549 10551 10553 10555 10558 10559 10559
10408 10411 10414 10418 10422 10425 10429 10433 10437 10441 10445 10449 10453 10457 10461 10464 10468 10471 10475 10479 10483 10488 10492 10497 10501 10505 10510 10514 10517 10520 10522 10524 10526 10528 10530 10534 10537 10539 10542 10544 10546 10547
10391 10394 10398 10401 10405 10409 10412 10416 10420 10424 10428 10432 10436 10439 10443 10447 10450 10454 10458 10461 10465 10469 10474 10479 10483 10487 10491 10496 10500 10503 10506 10509 10511 10513 10516 10518 10521 10524 10527 10530 10532 10533
10373 10377 10380 10384 10387 10391 10395 10399 10403 10407 10411 10414 10418 10422 10426 10429 10433 10437 10440 10444 10448 10451 10456 10460 10465 10469 10473 10477 10482 10485 10489 10492 10495 10498 10501 10504 10506 10509 10512 10515 10518 10520
10356 10359 10362 10366 10369 10373 10377 10381 10385 10389 10393 10397 10400 10404 10408 10411 10415 10419 10423 10427 10430 10434 10437 10441 10446 10451 10455 10459 10463 10467 10471 10475 10478 10481 10485 10488 10491 10494 10497 10500 10503 10505
10339 10342 10345 10348 10351 10355 10359 10363 10367 10371 10375 10379 10383 10386 10390 10393 10397 10401 10404 10408 10412 10416 10419 10423 10427 10431 10436 10440 10444 10448 10452 10456 10460 10464 10467 10471 10475 10478 10482 10485 10487 10489
10323 10326 10329 10332 10335 10338 10341 10345 10349 10353 10356 10361 10365 10368 10372 10375 10379 10382 10386 10390 10394 10398 10401 10404 10408 10412 10416 10421 10425 10429 10433 10437 10441 10445 10449 10453 10457 10461 10465 10468 10471 10473
10306 10309 10311 10314 10318 10320 10324 10327 10331 10335 10338 10342 10346 10350 10354 10358 10361 10364 10368 10372 10375 10379 10383 10386 10389 10393 10397 10401 10405 10410 10414 10418 10422 10426 10430 10434 10438 10443 10447 10451 10454 10456
10289 10291 10294 10296 10300 10303 10306 10309 10313 10316 10320 10324 10328 10332 10336 10340 10343 10347 10350 10354 10357 10361 10365 10369 10372 10375 10378 10382 10385 10390 10394 10398 10402 10407 10411 10415 10419 10423 10428 10432 10436 10439
10272 10274 10277 10279 10282 10284 10288 10291 10294 10297 10301 10305 10308 10312 10316 10320 10325 10328 10332 10335 10339 10343 10346 10350 10354 10357 10360 10364 10367 10371 10374 10378 10383 10387 10391 10395 10399 10403 10408 10412 10416 10420
10256 10258 10260 10262 10264 10267 10269 10272 10275 10278 10282 10285 10289 10292 10296 10300 10304 10309 10312 10316 10320 10323 10327 10331 10335 10339 10342 10345 10349 10352 10356 10359 10363 10367 10371 10375 10379 10383 10388 10393 10397 10401
10239 10241 10243 10245 10247 10250 10252 10254 10257 10260 10263 10266 10269 10273 10276 10280 10284 10288 10292 10296 10300 10303 10307 10311 10315 10319 10323 10327 10330 10334 10338 10341 10345 10348 10352 10356 10359 10363 10368 10373 10377 10381
10222 10224 10226 10228 10230 10232 10234 10236 10239 10241 10244 10247 10250 10253 10257 10260 10264 10267 10271 10275 10279 10283 10287 10290 10294 10299 10303 10307 10311 10315 10319 10323 10326 10329 10333 10336 10340 10343 10347 10352 10357 10361
10205 10207 10209 10210 10212 10214 10216 10218 10221 10223 10226 10228 10231 10234 10237 10241 10244 10247 10251 10255 10258 10262 10266 10270 10274 10278 10282 10287 10291 10295 10299 10304 10307 10311 10314 10317 10320 10323 10327 10332 10337 10341
10189 10190 10192 10193 10195 10196 10198 10200 10202 10205 10207 10210 10213 10216 10218 10222 10225 10228 10231 10235 10238 10241 10245 10249 10253 10257 10262 10266 10270 10275 10280 10284 10288 10291 10295 10297 10300 10303 10307 10312 10317 10321
10173 10174 10175 10176 10177 10179 10180 10182 10184 10186 10189 10191 10194 10197 10200 10203 10206 10209 10212 10215 10218 10221 10224 10228 10231 10236 10241 10245 10250 10255 10260 10264 10269 10272 10275 10277 10280 10283 10287 10291 10295 10300
10157 10157 10158 10158 10160 10161 10162 10164 10166 10168 10171 10173 10176 10178 10181 10184 10186 10189 10192 10195 10198 10200 10203 10206 10210 10215 10219 10224 10228 10234 10239 10244 10249 10252 10255 10257 10260 10263 10267 10270 10274 10279
10140 10140 10140 10141 10142 10143 10144 10146 10148 10150 10152 10155 10157 10159 10161 10164 10167 10170 10172 10176 10179 10181 10183 10185 10189 10193 10198 10202 10207 10212 10218 10224 10230 10233 10234 10236 10239 10243 10247 10250 10253 10257
10123 10123 10123 10123 10124 10126 10127 10128 10130 10131 10133 10136 10137 10139 10141 10144 10147 10150 10152 10155 10158 10161 10163 10164 10167 10172 10176 10181 10185 10190 10195 10203 10209 10213 10214 10215 10219 10222 10226 10229 10233 10236
10105 10105 10105 10105 10107 10108 10109 10110 10111 10113 10114 10116 10117 10119 10121 10123 10126 10129 10131 10135 10138 10141 10142 10144 10147 10151 10155 10159 10164 10168 10174 10180 10188 10192 10193 10196 10198 10201 10204 10208 10212 10216
10088 10087 10087 10087 10088 10089 10090 10091 10092 10093 10095 10096 10097 10098 10100 10102 10105 10107 10110 10113 10116 10120 10122 10123 10126 10130 10134 10137 10141 10146 10151 10158 10165 10169 10172 10176 10178 10180 10183 10187 10192 10196
10071 10070 10069 10069 10070 10070 10070 10071 10072 10074 10075 10076 10077 10078 10080 10082 10084 10086 10088 10091 10094 10098 10101 10103 10104 10108 10112 10116 10120 10124 10129 10135 10141 10146 10150 10154 10157 10160 10163 10167 10171 10174
10053 10052 10051 10052 10052 10052 10052 10052 10053 10055 10056 10057 10058 10058 10060 10062 10064 10066 10068 10070 10073 10076 10080 10082 10083 10086 10090 10094 10097 10101 10107 10113 10118 10123 10128 10133 10136 10139 10142 10146 10150 10153
10036 10035 10034 10034 10034 10034 10034 10035 10036 10036 10037 10038 10039 10039 10040 10042 10044 10046 10047 10049 10052 10055 10058 10061 10062 10063 10067 10071 10075 10079 10084 10091 10096 10101 10106 10110 10114 10118 10121 10125 10128 10131
10020 10018 10017 10017 10017 10016 10016 10017 10018 10018 10019 10020 10021 10021 10021 10022 10024 10026 10027 10029 10032 10034 10037 10040 10041 10042 10044 10048 10052 10056 10062 10068 10074 10079 10083 10087 10091 10096 10100 10104 10107 10110
10004 10002 10001 10001 10000 9999 9998 9999 10000 10000 10000 10002 10002 10003 10004 10004 10005 10007 10008 10009 10012 10015 10017 10020 10021 10022 10022 10025 10029 10034 10040 10046 10052 10056 10061 10065 10069 10074 10078 10082 10086 10089